When you browse on this site, cookies collect data to enhance your experience and personalize the content and advertising you see.
Visit our Privacy Policy to learn more. By continuing to use the site, you agree to this use of cookies and data.
  • In Österreich
  • Länderverzeichnis
  • Für 7 Tage
  • Wassertemperatur
  • Wetterkarte
  • News
  • Widgets
  • user-avatar
    Anmelden

    Stündliche Wetter Berat

    Heute, 11 Dezember, Mittwoch

    Zeit Temperatur Niederschläge Wind Luftdruck Luftfeuchtigkeit
    00:00 +10°C° 0.1 mm 2 m/S 738 mmHg 85%
    01:00 +10°C° 0 mm 2 m/S 738 mmHg 85%
    02:00 +10°C° 0.1 mm 2 m/S 738 mmHg 85%
    03:00 +9°C° 0.1 mm 2 m/S 737 mmHg 85%
    04:00 +9°C° 0.1 mm 3 m/S 737 mmHg 84%
    05:00 +9°C° 0.1 mm 3 m/S 737 mmHg 84%
    06:00 +9°C° 0.1 mm 3 m/S 737 mmHg 84%
    07:00 +9°C° 0.1 mm 3 m/S 738 mmHg 83%
    08:00 +10°C° 0 mm 3 m/S 738 mmHg 79%
    09:00 +10°C° 0 mm 3 m/S 739 mmHg 75%
    10:00 +11°C° 0 mm 3 m/S 739 mmHg 71%
    11:00 +12°C° 0 mm 3 m/S 739 mmHg 69%
    12:00 +12°C° 0 mm 3 m/S 739 mmHg 67%
    13:00 +12°C° 0 mm 3 m/S 738 mmHg 65%
    14:00 +11°C° 0 mm 3 m/S 738 mmHg 69%
    15:00 +11°C° 0 mm 3 m/S 738 mmHg 73%
    16:00 +10°C° 0 mm 2 m/S 738 mmHg 76%
    17:00 +9°C° 0 mm 2 m/S 738 mmHg 78%
    18:00 +9°C° 0 mm 2 m/S 739 mmHg 79%
    19:00 +8°C° 0 mm 2 m/S 739 mmHg 80%
    20:00 +8°C° 0 mm 2 m/S 739 mmHg 80%
    21:00 +8°C° 0 mm 2 m/S 739 mmHg 79%
    22:00 +8°C° 0 mm 2 m/S 739 mmHg 79%
    23:00 +8°C° 0 mm 2 m/S 738 mmHg 79%

    Morgen, 12 Dezember, Donnerstag

    Zeit Temperatur Niederschläge Wind Luftdruck Luftfeuchtigkeit
    00:00 +7°C° 0 mm 2 m/S 738 mmHg 80%
    01:00 +7°C° 0 mm 2 m/S 738 mmHg 80%
    02:00 +7°C° 0 mm 2 m/S 738 mmHg 80%
    03:00 +7°C° 0 mm 2 m/S 737 mmHg 80%
    04:00 +7°C° 0 mm 2 m/S 737 mmHg 80%
    05:00 +7°C° 0 mm 2 m/S 737 mmHg 80%
    06:00 +7°C° 0 mm 2 m/S 737 mmHg 80%
    07:00 +7°C° 0 mm 2 m/S 737 mmHg 80%
    08:00 +8°C° 0 mm 2 m/S 737 mmHg 76%
    09:00 +9°C° 0 mm 2 m/S 737 mmHg 71%
    10:00 +12°C° 0 mm 1 m/S 737 mmHg 67%
    11:00 +12°C° 0 mm 1 m/S 737 mmHg 67%
    12:00 +12°C° 0 mm 1 m/S 737 mmHg 67%
    13:00 +13°C° 0 mm 1 m/S 737 mmHg 67%
    14:00 +12°C° 0.2 mm 1 m/S 737 mmHg 73%
    15:00 +11°C° 0.2 mm 1 m/S 736 mmHg 79%
    16:00 +11°C° 0.2 mm 1 m/S 736 mmHg 85%
    17:00 +10°C° 0.1 mm 1 m/S 736 mmHg 86%
    18:00 +10°C° 0.1 mm 1 m/S 736 mmHg 86%
    19:00 +10°C° 0.1 mm 1 m/S 736 mmHg 87%
    20:00 +9°C° 0 mm 2 m/S 736 mmHg 86%
    21:00 +8°C° 0 mm 2 m/S 736 mmHg 86%
    22:00 +8°C° 0 mm 2 m/S 736 mmHg 86%
    23:00 +8°C° 0.1 mm 2 m/S 736 mmHg 85%

    übermorgen, 13 Dezember, Freitag

    Zeit Temperatur Niederschläge Wind Luftdruck Luftfeuchtigkeit
    00:00 +8°C° 0.1 mm 2 m/S 736 mmHg 85%
    01:00 +9°C° 0.1 mm 2 m/S 735 mmHg 85%
    02:00 +9°C° 0.3 mm 2 m/S 735 mmHg 85%
    03:00 +9°C° 0.3 mm 2 m/S 735 mmHg 86%
    04:00 +9°C° 0.3 mm 2 m/S 735 mmHg 87%
    05:00 +9°C° 0.3 mm 2 m/S 735 mmHg 87%
    06:00 +8°C° 0.3 mm 2 m/S 735 mmHg 87%
    07:00 +8°C° 0.3 mm 2 m/S 735 mmHg 87%
    08:00 +9°C° 0.2 mm 2 m/S 735 mmHg 85%
    09:00 +9°C° 0.2 mm 2 m/S 735 mmHg 83%
    10:00 +10°C° 0.2 mm 2 m/S 735 mmHg 80%
    11:00 +10°C° 0.4 mm 3 m/S 735 mmHg 80%
    12:00 +10°C° 0.4 mm 3 m/S 734 mmHg 79%
    13:00 +11°C° 0.4 mm 3 m/S 734 mmHg 78%
    14:00 +10°C° 0.1 mm 2 m/S 733 mmHg 79%
    15:00 +10°C° 0.1 mm 2 m/S 733 mmHg 80%
    16:00 +9°C° 0.1 mm 2 m/S 733 mmHg 82%
    17:00 +9°C° 0 mm 3 m/S 732 mmHg 82%
    18:00 +9°C° 0 mm 3 m/S 732 mmHg 83%
    19:00 +7°C° 0 mm 4 m/S 731 mmHg 83%
    20:00 +7°C° 0 mm 4 m/S 731 mmHg 83%
    21:00 +7°C° 0 mm 4 m/S 730 mmHg 83%
    22:00 +8°C° 0 mm 4 m/S 730 mmHg 83%
    23:00 +8°C° 1 mm 4 m/S 729 mmHg 84%

    14 Dezember, Samstag

    Zeit Temperatur Niederschläge Wind Luftdruck Luftfeuchtigkeit
    00:00 +8°C° 1 mm 4 m/S 728 mmHg 86%
    01:00 +8°C° 1 mm 4 m/S 727 mmHg 87%
    02:00 +8°C° 1.7 mm 4 m/S 727 mmHg 88%
    03:00 +9°C° 1.7 mm 3 m/S 726 mmHg 88%
    04:00 +9°C° 1.7 mm 3 m/S 726 mmHg 89%
    05:00 +9°C° 2 mm 3 m/S 726 mmHg 90%
    06:00 +9°C° 2 mm 3 m/S 727 mmHg 90%
    07:00 +8°C° 2 mm 3 m/S 727 mmHg 90%
    08:00 +9°C° 0.3 mm 3 m/S 728 mmHg 86%
    09:00 +10°C° 0.3 mm 3 m/S 729 mmHg 82%
    10:00 +11°C° 0.3 mm 3 m/S 730 mmHg 77%
    11:00 +12°C° 0 mm 3 m/S 730 mmHg 74%
    12:00 +14°C° 0 mm 2 m/S 731 mmHg 70%
    13:00 +14°C° 0 mm 2 m/S 732 mmHg 67%
    14:00 +14°C° 0 mm 2 m/S 733 mmHg 71%
    15:00 +13°C° 0 mm 2 m/S 734 mmHg 75%
    16:00 +12°C° 0 mm 2 m/S 735 mmHg 79%
    17:00 +12°C° 0 mm 2 m/S 736 mmHg 80%
    18:00 +10°C° 0 mm 2 m/S 737 mmHg 80%
    19:00 +11°C° 0 mm 1 m/S 738 mmHg 81%
    20:00 +11°C° 0 mm 1 m/S 739 mmHg 81%
    21:00 +11°C° 0 mm 1 m/S 740 mmHg 80%
    22:00 +11°C° 0 mm 1 m/S 741 mmHg 80%
    23:00 +11°C° 0 mm 1 m/S 742 mmHg 80%

    15 Dezember, Sonntag

    Zeit Temperatur Niederschläge Wind Luftdruck Luftfeuchtigkeit
    00:00 +11°C° 0 mm 1 m/S 742 mmHg 80%
    01:00 +10°C° 0 mm 1 m/S 743 mmHg 79%
    02:00 +10°C° 0 mm 1 m/S 743 mmHg 80%
    03:00 +10°C° 0 mm 1 m/S 743 mmHg 80%
    04:00 +10°C° 0 mm 1 m/S 744 mmHg 80%
    05:00 +9°C° 0 mm 2 m/S 744 mmHg 80%
    06:00 +9°C° 0 mm 2 m/S 745 mmHg 80%
    07:00 +9°C° 0 mm 2 m/S 745 mmHg 80%
    08:00 +12°C° 0 mm 2 m/S 746 mmHg 76%
    09:00 +14°C° 0 mm 2 m/S 746 mmHg 72%
    10:00 +16°C° 0 mm 1 m/S 747 mmHg 68%
    11:00 +16°C° 0 mm 1 m/S 747 mmHg 67%
    12:00 +17°C° 0 mm 2 m/S 747 mmHg 65%
    13:00 +18°C° 0 mm 2 m/S 747 mmHg 64%
    14:00 +16°C° 0 mm 1 m/S 747 mmHg 70%
    15:00 +15°C° 0 mm 1 m/S 747 mmHg 77%
    16:00 +14°C° 0 mm 1 m/S 748 mmHg 84%
    17:00 +14°C° 0 mm 1 m/S 748 mmHg 84%
    18:00 +13°C° 0 mm 1 m/S 748 mmHg 83%
    19:00 +13°C° 0 mm 2 m/S 749 mmHg 83%
    20:00 +12°C° 0 mm 2 m/S 749 mmHg 83%
    21:00 +12°C° 0 mm 2 m/S 749 mmHg 82%
    22:00 +12°C° 0 mm 1 m/S 750 mmHg 82%
    23:00 +12°C° 0 mm 1 m/S 750 mmHg 81%

    16 Dezember, Montag

    Zeit Temperatur Niederschläge Wind Luftdruck Luftfeuchtigkeit
    00:00 +12°C° 0 mm 1 m/S 750 mmHg 81%
    01:00 +11°C° 0 mm 1 m/S 750 mmHg 81%
    02:00 +10°C° 0 mm 2 m/S 750 mmHg 81%
    03:00 +10°C° 0 mm 2 m/S 750 mmHg 81%
    04:00 +10°C° 0 mm 2 m/S 750 mmHg 81%
    05:00 +10°C° 0 mm 2 m/S 750 mmHg 81%
    06:00 +10°C° 0 mm 2 m/S 750 mmHg 81%
    07:00 +10°C° 0 mm 2 m/S 751 mmHg 81%
    08:00 +12°C° 0 mm 2 m/S 751 mmHg 77%
    09:00 +14°C° 0 mm 1 m/S 751 mmHg 74%
    10:00 +15°C° 0 mm 1 m/S 751 mmHg 70%
    11:00 +16°C° 0 mm 1 m/S 751 mmHg 67%
    12:00 +18°C° 0 mm 1 m/S 751 mmHg 64%
    13:00 +18°C° 0 mm 1 m/S 750 mmHg 61%
    14:00 +16°C° 0 mm 1 m/S 750 mmHg 66%
    15:00 +15°C° 0 mm 1 m/S 750 mmHg 72%
    16:00 +13°C° 0 mm 0 m/S 750 mmHg 77%
    17:00 +13°C° 0 mm 1 m/S 750 mmHg 78%
    18:00 +13°C° 0 mm 1 m/S 750 mmHg 80%
    19:00 +12°C° 0 mm 1 m/S 750 mmHg 81%
    20:00 +12°C° 0 mm 1 m/S 751 mmHg 81%
    21:00 +12°C° 0 mm 1 m/S 751 mmHg 81%
    22:00 +11°C° 0 mm 1 m/S 751 mmHg 81%
    23:00 +11°C° 0 mm 1 m/S 751 mmHg 81%
    Mehr zeigen